Regional Weather Roundup
Issued by NWS Grand Forks, ND

Home | Current Version | Previous Version | Text Only | Print | Product List | Glossary Off
Versions: 1 2 3 4 5 6 7 8 9 10 11 12 13 14 15 16 17 18 19 20 21 22 23 24 25 26 27 28 29 30 31 32 33 34 35 36 37 38 39 40 41 42 43 44 45 46 47 48 49 50

000
ASUS43 KFGF 020831
RWRFGF
PRAIRIE TO PINES  WEATHER ROUNDUP
NATIONAL WEATHER SERVICE EASTERN NORTH DAKOTA/GRAND FORKS ND
300 AM CDT TUE JUN 02 2015

 **SATELLITE DATA USED TO AUGMENT SKY COVER AT AUTOMATED STATIONS**
 *****  WEATHER ACROSS EASTERN NORTH DAKOTA  *****

CITY           SKY/WX    TMP DP  RH WIND       PRES   REMARKS
GRAND FORKS    RAIN      57  55  93 CALM      29.90S FOG
GRAND FRKS AFB LGT RAIN  57  54  88 S14       29.86F
GRAND FRKS NWS   N/A     55 N/A N/A SE9         N/A
DEVILS LAKE    CLOUDY    61  55  82 SE17      29.80F
FARGO          CLOUDY    64  46  52 S20G29    29.87F
WAHPETON ARPT  CLOUDY    59  45  58 S16G24    29.90F
$$

 ***** WEATHER ACROSS CENTRAL AND WESTERN NORTH DAKOTA  *****

CITY           SKY/WX    TMP DP  RH WIND       PRES   REMARKS
BISMARCK       TSTM      63  60  90 N8G25     29.84R FOG
MINOT          CLOUDY    60  58  92 N7        29.79F
JAMESTOWN      CLOUDY    64  56  75 S13       29.80F
MINOT AFB      CLOUDY    59  59 100 N7        29.79S
GARRISON         N/A     61  58  90 S3        29.81F
WILLISTON      CLOUDY    63  55  75 NE7       29.83R
DICKINSON      CLOUDY    60  57  89 NE13      29.85R
HETTINGER      CLOUDY    67  57  70 N28G35    29.80R
$$

 *****  OTHER AIRPORT OBSERVATIONS IN OUR AREA  *****

CITY           SKY/WX    TMP DP  RH WIND       PRES   REMARKS
WALHALLA       FAIR      59  59 100 MISG      29.82S
GRAFTON AIRPOR FAIR      57  57 100 S15       29.84F
VALLEY CITY AR CLOUDY    64  54  68 S12G17    29.83F
CANDO          FAIR      63  59  88 SE18      29.79F
CAVALIER APRT  FAIR      59  55  88 S14       29.82F
GWINNER        NOT AVBL
SHEYENNE NWR     N/A     62  50  63 S13       29.95S
ROLLA          FOG       55  55 100 N7        29.83F VSB 3/4
 ***** THE ABOVE OBSERVATIONS ARE NON NWS ARE NOT QUALITY
       CONTROLLED AND MAY MIS-REPORT RAIN FOR SNOW...
$$

  *****  WEATHER ACROSS NORTHERN MINNESOTA  *****

CITY           SKY/WX    TMP DP  RH WIND       PRES   REMARKS
FLAG ISLAND    NOT AVBL
WARROAD        RAIN      57  46  67 S3        29.92S
ROSEAU         CLOUDY    59  46  63 S14       29.90F
HALLOCK        CLOUDY    57  54  88 S15       29.85S
THF RVR FALLS  CLOUDY    55  50  82 CALM      29.95R
BAUDETTE       CLOUDY    55  39  54 SE7       29.94F
WASKISH        CLOUDY    59  41  51 SE10      29.95S
CROOKSTON      RAIN      54  54 100 NW3       29.93R
STEPHEN NDAWN    N/A     55  54  94 S15         N/A
GREENBUSH NDAW   N/A     57  52  82 S10         N/A
$$
  *****  WEATHER ACROSS CENTRAL AND WEST MINNESOTA  *****

CITY           SKY/WX    TMP DP  RH WIND       PRES   REMARKS
FOSSTON        CLOUDY    61  41  48 S17G24    29.93S
BEMIDJI        CLOUDY    58  38  47 S10       29.98S
PARK RAPIDS    MOCLDY    58  38  47 S13       29.98F
ELBOW LAKE     FAIR      61  45  54 SE18G28   29.95F
WADENA         MOCLDY    55  39  54 SE7       29.99F
DETROIT LAKES  CLOUDY    61  45  55 S14       29.96S
MOORHEAD       CLOUDY    63  45  51 SE20G25   29.89S
FERGUS FALLS   MOCLDY    63  45  51 S17       29.94S
MORRIS MN      MOCLDY    57  45  62 SE15      29.96F
STAPLES        MOCLDY    55  39  54 SE10      30.01F
$$
  *****  WEATHER ELSEWHERE ACROSS MINNESOTA  *****

CITY           SKY/WX    TMP DP  RH WIND       PRES   REMARKS
DULUTH         MOCLDY    44  30  57 SE8       30.09F
INTRNTL FALLS  CLOUDY    56  38  50 SE7       30.00R
ELY            MOCLDY    52  36  54 S6        30.07S
CLOQUET        MOCLDY    39  34  81 SE3       30.09S
WHEATON        MOCLDY    57  46  67 SE16G23   29.93F
BRAINERD       MOCLDY    56  41  57 S7        30.04S
HIBBING        MOCLDY    43  33  68 SE3       30.07S
ALEXANDRIA     PTCLDY    58  40  51 S10       30.01F
SAINT CLOUD    MOCLDY    54  43  66 SE6       30.05F
MINNEAPOLIS    PTCLDY    56  41  57 SE8       30.09S
$$

  *****  WEATHER ACROSS SOUTH DAKOTA  *****

CITY           SKY/WX    TMP DP  RH WIND       PRES   REMARKS
SIOUX FALLS    CLOUDY    61  50  67 S14       29.98F
BROOKINGS      PTCLDY    59  48  67 S13       29.99S
WATERTOWN      MOCLDY    61  51  70 S16       29.94S
HURON          CLOUDY    64  53  67 S20G26    29.88F
SISSETON         N/A     60  50  69 S13       29.90F
ABERDEEN       CLOUDY    64  53  67 S14       29.85F
MITCHELL       CLOUDY    64  53  67 S15       29.92F
PIERRE         CLOUDY    66  60  81 SE15      29.77F
MOBRIDGE       CLOUDY    69  63  81 S15       29.74F
RAPID CITY     CLOUDY    62  54  74 SE7       29.79F
$$

  *****  SOME WEATHER IN NEARBY STATES *****

CITY           SKY/WX    TMP DP  RH WIND       PRES   REMARKS
GLASGOW MT     MOCLDY    65  40  39 NE24G35   29.80F
GREAT FALLS MT CLOUDY    54  51  90 SE5       29.88R
CHEYENNE WY    PTCLDY    55  48  77 SE7       30.04S
SCOTTSBLUFF NE PTCLDY    57  54  89 SE6       29.93F
OMAHA NE       MOCLDY    60  54  80 SE14      30.05F
DES MOINES IA  PTCLDY    56  52  86 S7        30.12F
DAVENPORT IA   CLEAR     52  46  80 E7        30.18R
CHICAGO IL     CLEAR     43  38  82 N3        30.17S
EAU CLAIRE WI  PTCLDY    51  37  58 SE5       30.14F
LA CROSSE WI   CLEAR     53  37  54 SE7       30.16S
$$

  *****  SOME NATIONAL WEATHER *****

CITY           SKY/WX    TMP DP  RH WIND       PRES   REMARKS
LA GUARDIA NY  CLOUDY    50  47  89 NE9       30.12R
RALEIGH NC     MOCLDY    69  67  93 CALM      30.00F
ATLANTA GA     CLOUDY    69  66  90 W5        30.01F
NEW ORLEANS LA MOCLDY    74  69  85 CALM      29.99S
OKLAHOMA CITY  PTCLDY    65  61  87 SE8       30.03S
ALBUQUERQUE NM PTCLDY    69  42  37 N6        30.15R
SALT LAKE CITY PTCLDY    63  52  67 CALM      29.88S
LOS ANGELES CA PTCLDY    60  56  86 W6        29.99F
BOISE ID       PTCLDY    64  45  49 W7        29.88R
SEATTLE WA     CLOUDY    56  51  84 S7        29.96S
$$

*** WEATHER ACROSS MANITOBA...SASKATCHEWAN AND ONTARIO ***
                ***ONTARIO***

CITY           SKY/WX    TMP DP  RH WIND       PRES   REMARKS
GERALDTON      PTCLDY    39  30  70 S5        30.14F
THUNDER BAY    CLOUDY    39  37  93 NE3       30.15S
SIOUX LOOKOUT  PTCLDY    57  41  54 S9        29.99F
TORONTO        PTCLDY    48  46  93 N6        30.18F
BIG TROUT LK   CLOUDY    50  39  66 S9        29.81F
PICKLE LAKE    NOT AVBL
DRYDEN         CLOUDY    59  41  51 S16G22    29.96F
KENORA         LGT RAIN  59  39  47 S12G20    29.94S
$$
                *** MANITOBA***

CITY           SKY/WX    TMP DP  RH WIND       PRES   REMARKS
BRANDON        MOCLDY    48  46  93 N6        29.83S
DAUPHIN        CLEAR     59  48  67 N13       29.86R
ISLAND LAKE    MOCLDY    54  52  94 CALM      29.75R
PILOT MOUND      N/A     55  54  94 S7          N/A
THE PAS        PTCLDY    50  41  71 NW9       29.91R
THOMPSON       PTCLDY    43  39  87 W7        29.78R
WINNIPEG       MOCLDY    59  50  72 S15G24    29.84S
LYNN LAKE      MOCLDY    41  30  65 NW25G35   29.80R
CHURCHILL      MOCLDY    46  45  93 SW15G22   29.48S
GILLAM         MOCLDY    46  43  87 W13G20    29.67R
$$
                ***SASKATCHEWAN***

CITY           SKY/WX    TMP DP  RH WIND       PRES   REMARKS
ESTEVAN        CLOUDY    52  48  87 N9        29.85F
KINDERSLEY     MOCLDY    52  46  82 NE9       29.96
LLOYDMINSTER   CLEAR     43  37  81 N7        30.03R
PRINCE ALBERT  MOCLDY    43  39  87 N6        30.01S
REGINA         PTCLDY    54  45  71 NE8       29.93R
YORKTON        CLEAR     50  45  81 N8        29.90S
N. BATTLEFORD  CLEAR     46  43  87 NE8       30.02R
LA RONGE       CLEAR     41  30  65 NW5       29.98F
SASKATOON      MOCLDY    50  46  87 NE12      29.99R
SWIFT CURRENT  CLEAR     52  43  71 SE9       29.93S
$$
NOTE: THESE ARE AUTOMATED STATIONS WITH LIMITED QUALITY CONTROL
      "FAIR" INDICATES FEW OR NO CLOUDS BELOW 12,000 FEET WITH NO
      SIGNIFICANT WEATHER AND/OR OBSTRUCTIONS TO VISIBILITY.
      SKY/WX - SKY CONDITION AND SIGNIFICANT WEATHER.
      TMP - AIR TEMPERATURE.    DP   - DEWPOINT TEMPERATURE.
      RH  - RELATIVE HUMIDITY.  PRES - PRESSURE.
      HX  - HEAT INDEX.         WCI  - WIND CHILL INDEX.
$



USA.gov is the U.S. government's official web portal to all federal, state and local government web resources and services.